Time,TemperatureF,DewpointF,PressureIn,WindDirection,WindDirectionDegrees,WindSpeedMPH,WindSpeedGustMPH,Humidity,HourlyPrecipIn,Conditions,Clouds,dailyrainin,SoftwareType,DateUTC
2013-04-07 00:00:00,35.1,10.1,30.18,SW,214,0.0,4.0,35,0.00,CLR,CLR,0.00,WeatherDisplay:10.37,2013-04-06 23:00:00,
2013-04-07 00:10:00,35.2,10.9,30.18,SSW,204,2.0,6.0,36,0.00,CLR,CLR,0.00,WeatherDisplay:10.37,2013-04-06 23:10:00,
2013-04-07 00:20:00,35.6,11.9,30.18,SW,222,0.0,3.0,37,0.00,CLR,CLR,0.00,WeatherDisplay:10.37,2013-04-06 23:20:00,
2013-04-07 00:30:00,35.3,11.6,30.18,SW,221,0.0,0.0,37,0.00,CLR,CLR,0.00,WeatherDisplay:10.37,2013-04-06 23:30:00,
2013-04-07 00:40:00,34.5,10.3,30.18,SW,221,0.0,0.0,36,0.00,CLR,CLR,0.00,WeatherDisplay:10.37,2013-04-06 23:40:00,
2013-04-07 00:50:00,34.0,9.8,30.18,SW,222,0.0,0.0,36,0.00,CLR,CLR,0.00,WeatherDisplay:10.37,2013-04-06 23:50:00,
2013-04-07 00:55:00,33.8,9.6,30.18,SW,222,0.0,0.0,36,0.00,CLR,CLR,0.00,WeatherDisplay:10.37,2013-04-06 23:55:00,
2013-04-07 01:05:00,33.3,9.8,30.18,SW,222,0.0,0.0,37,0.00,CLR,CLR,0.00,WeatherDisplay:10.37,2013-04-07 00:05:00,
2013-04-07 01:10:00,33.1,9.6,30.18,SSW,207,0.0,0.0,37,0.00,CLR,CLR,0.00,WeatherDisplay:10.37,2013-04-07 00:10:00,
2013-04-07 01:20:00,32.7,9.3,30.18,SE,130,0.0,0.0,37,0.00,CLR,CLR,0.00,WeatherDisplay:10.37,2013-04-07 00:20:00,
2013-04-07 01:30:00,32.4,9.5,30.18,SE,129,0.0,0.0,38,0.00,CLR,CLR,0.00,WeatherDisplay:10.37,2013-04-07 00:30:00,
2013-04-07 01:40:00,32.2,9.4,30.18,SE,130,0.0,0.0,38,0.00,CLR,CLR,0.00,WeatherDisplay:10.37,2013-04-07 00:40:00,
2013-04-07 01:50:00,32.2,10.5,30.18,SE,130,0.0,0.0,40,0.00,CLR,CLR,0.00,WeatherDisplay:10.37,2013-04-07 00:50:00,
2013-04-07 01:55:00,32.4,10.7,30.18,SE,130,0.0,0.0,40,0.00,CLR,CLR,0.00,WeatherDisplay:10.37,2013-04-07 00:55:00,
2013-04-07 02:05:00,32.5,10.9,30.18,SE,132,0.0,0.0,40,0.00,CLR,CLR,0.00,WeatherDisplay:10.37,2013-04-07 01:05:00,
2013-04-07 02:10:00,32.5,10.9,30.18,SE,146,0.0,0.0,40,0.00,CLR,CLR,0.00,WeatherDisplay:10.37,2013-04-07 01:10:00,
2013-04-07 02:20:00,32.9,11.7,30.18,SSW,195,0.0,0.0,41,0.00,CLR,CLR,0.00,WeatherDisplay:10.37,2013-04-07 01:20:00,
2013-04-07 02:25:00,33.1,11.9,30.18,SSW,196,0.0,0.0,41,0.00,CLR,CLR,0.00,WeatherDisplay:10.37,2013-04-07 01:25:00,
2013-04-07 02:30:00,33.1,11.9,30.18,SSW,196,0.0,0.0,41,0.00,CLR,CLR,0.00,WeatherDisplay:10.37,2013-04-07 01:30:00,
2013-04-07 02:40:00,33.3,12.1,30.18,SSW,195,0.0,0.0,41,0.00,CLR,CLR,0.00,WeatherDisplay:10.37,2013-04-07 01:40:00,
2013-04-07 02:50:00,33.1,12.5,30.17,SSW,196,0.0,0.0,42,0.00,CLR,CLR,0.00,WeatherDisplay:10.37,2013-04-07 01:50:00,
2013-04-07 03:00:00,33.1,12.4,30.15,SSW,196,0.0,0.0,42,0.00,CLR,CLR,0.00,WeatherDisplay:10.37,2013-04-07 02:00:00,
2013-04-07 03:05:00,32.9,12.3,30.15,SSW,196,0.0,0.0,42,0.00,CLR,CLR,0.00,WeatherDisplay:10.37,2013-04-07 02:05:00,
2013-04-07 03:10:00,32.7,12.1,30.15,SSW,196,0.0,0.0,42,0.00,CLR,CLR,0.00,WeatherDisplay:10.37,2013-04-07 02:10:00,
2013-04-07 03:20:00,32.5,12.0,30.15,SSW,195,0.0,0.0,42,0.00,CLR,CLR,0.00,WeatherDisplay:10.37,2013-04-07 02:20:00,
2013-04-07 03:30:00,32.4,12.3,30.15,SSW,196,0.0,0.0,43,0.00,CLR,CLR,0.00,WeatherDisplay:10.37,2013-04-07 02:30:00,
2013-04-07 03:40:00,32.4,12.3,30.15,SSW,196,0.0,0.0,43,0.00,CLR,CLR,0.00,WeatherDisplay:10.37,2013-04-07 02:40:00,
2013-04-07 03:50:00,32.4,12.3,30.15,SSW,195,0.0,0.0,43,0.00,CLR,CLR,0.00,WeatherDisplay:10.37,2013-04-07 02:50:00,
2013-04-07 04:00:00,32.5,13.0,30.15,SSW,194,0.0,0.0,44,0.00,CLR,CLR,0.00,WeatherDisplay:10.37,2013-04-07 03:00:00,
2013-04-07 04:05:00,32.5,13.0,30.15,South,187,0.0,0.0,44,0.00,CLR,CLR,0.00,WeatherDisplay:10.37,2013-04-07 03:05:00,
2013-04-07 04:10:00,32.5,13.0,30.15,South,176,0.0,0.0,44,0.00,CLR,CLR,0.00,WeatherDisplay:10.37,2013-04-07 03:10:00,
2013-04-07 04:20:00,32.4,12.8,30.15,SE,135,0.0,0.0,44,0.00,CLR,CLR,0.00,WeatherDisplay:10.37,2013-04-07 03:20:00,
2013-04-07 04:30:00,32.2,12.7,30.15,ESE,112,2.0,4.0,44,0.00,CLR,CLR,0.00,WeatherDisplay:10.37,2013-04-07 03:30:00,
2013-04-07 04:40:00,32.2,13.2,30.15,ESE,112,3.0,4.0,45,0.00,CLR,CLR,0.00,WeatherDisplay:10.37,2013-04-07 03:40:00,
2013-04-07 04:50:00,32.4,13.4,30.15,ESE,107,2.0,4.0,45,0.00,CLR,CLR,0.00,WeatherDisplay:10.37,2013-04-07 03:50:00,
2013-04-07 05:00:00,32.4,13.4,30.15,ESE,109,3.0,4.0,45,0.00,CLR,CLR,0.00,WeatherDisplay:10.37,2013-04-07 04:00:00,
2013-04-07 05:05:00,32.5,14.0,30.15,ESE,115,3.0,4.0,46,0.00,CLR,CLR,0.00,WeatherDisplay:10.37,2013-04-07 04:05:00,
2013-04-07 05:10:00,32.5,14.0,30.15,ESE,119,3.0,4.0,46,0.00,CLR,CLR,0.00,WeatherDisplay:10.37,2013-04-07 04:10:00,
2013-04-07 05:20:00,32.5,14.0,30.15,ESE,111,2.0,4.0,46,0.00,CLR,CLR,0.00,WeatherDisplay:10.37,2013-04-07 04:20:00,
2013-04-07 05:30:00,32.4,13.9,30.15,ESE,110,3.0,4.0,46,0.00,CLR,CLR,0.00,WeatherDisplay:10.37,2013-04-07 04:30:00,
2013-04-07 05:40:00,32.0,13.5,30.15,ESE,112,3.0,4.0,46,0.00,CLR,CLR,0.00,WeatherDisplay:10.37,2013-04-07 04:40:00,
2013-04-07 05:50:00,31.6,13.2,30.15,ESE,110,3.0,4.0,46,0.00,CLR,CLR,0.00,WeatherDisplay:10.37,2013-04-07 04:50:00,
2013-04-07 06:00:00,32.0,14.0,30.15,East,97,2.0,4.0,47,0.00,CLR,CLR,0.00,WeatherDisplay:10.37,2013-04-07 05:00:00,
2013-04-07 06:05:00,32.0,14.0,30.15,East,97,0.0,0.0,47,0.00,CLR,CLR,0.00,WeatherDisplay:10.37,2013-04-07 05:05:00,
2013-04-07 06:10:00,32.0,14.0,30.15,ESE,110,0.0,0.0,47,0.00,CLR,CLR,0.00,WeatherDisplay:10.37,2013-04-07 05:10:00,
2013-04-07 06:20:00,32.0,14.0,30.15,ESE,112,0.0,0.0,47,0.00,CLR,CLR,0.00,WeatherDisplay:10.37,2013-04-07 05:20:00,
2013-04-07 06:30:00,32.2,14.2,30.15,ESE,112,0.0,0.0,47,0.00,CLR,CLR,0.00,WeatherDisplay:10.37,2013-04-07 05:30:00,
2013-04-07 06:40:00,32.2,14.7,30.15,ESE,112,0.0,0.0,48,0.00,CLR,CLR,0.00,WeatherDisplay:10.37,2013-04-07 05:40:00,
2013-04-07 06:45:00,32.2,14.7,30.15,ESE,112,0.0,0.0,48,0.00,CLR,CLR,0.00,WeatherDisplay:10.37,2013-04-07 05:45:00,
2013-04-07 06:55:00,32.5,15.0,30.15,ESE,112,0.0,0.0,48,0.00,CLR,CLR,0.00,WeatherDisplay:10.37,2013-04-07 05:55:00,
2013-04-07 07:05:00,32.5,15.0,30.15,ESE,112,0.0,0.0,48,0.00,CLR,CLR,0.00,WeatherDisplay:10.37,2013-04-07 06:05:00,
2013-04-07 07:10:00,32.7,15.2,30.15,ESE,112,0.0,0.0,48,0.00,CLR,CLR,0.00,WeatherDisplay:10.37,2013-04-07 06:10:00,
2013-04-07 07:20:00,32.9,15.8,30.15,ESE,112,0.0,0.0,49,0.00,CLR,CLR,0.00,WeatherDisplay:10.37,2013-04-07 06:20:00,
2013-04-07 07:30:00,33.3,16.1,30.15,ESE,112,2.0,4.0,49,0.00,CLR,CLR,0.00,WeatherDisplay:10.37,2013-04-07 06:30:00,
2013-04-07 07:40:00,33.6,16.5,30.15,ESE,112,0.0,2.0,49,0.00,CLR,CLR,0.00,WeatherDisplay:10.37,2013-04-07 06:40:00,
2013-04-07 07:50:00,34.0,16.8,30.15,ESE,110,0.0,0.0,49,0.00,CLR,CLR,0.00,WeatherDisplay:10.37,2013-04-07 06:50:00,
2013-04-07 08:00:00,34.3,17.6,30.15,ESE,104,1.0,4.0,50,0.00,CLR,CLR,0.00,WeatherDisplay:10.37,2013-04-07 07:00:00,
2013-04-07 08:05:00,34.4,17.7,30.15,ESE,111,1.0,4.0,50,0.00,CLR,CLR,0.00,WeatherDisplay:10.37,2013-04-07 07:05:00,
2013-04-07 08:10:00,34.5,17.3,30.12,ESE,107,2.0,4.0,49,0.00,CLR,CLR,0.00,WeatherDisplay:10.37,2013-04-07 07:10:00,
2013-04-07 08:20:00,34.9,17.6,30.12,ESE,104,0.0,0.0,49,0.00,CLR,CLR,0.00,WeatherDisplay:10.37,2013-04-07 07:20:00,
2013-04-07 08:30:00,35.3,18.0,30.12,SE,124,0.0,0.0,49,0.00,CLR,CLR,0.00,WeatherDisplay:10.37,2013-04-07 07:30:00,
2013-04-07 08:40:00,35.8,18.0,30.12,SSE,149,0.0,0.0,48,0.00,CLR,CLR,0.00,WeatherDisplay:10.37,2013-04-07 07:40:00,
2013-04-07 08:50:00,36.1,18.3,30.12,ESE,112,0.0,3.0,48,0.00,CLR,CLR,0.00,WeatherDisplay:10.37,2013-04-07 07:50:00,
2013-04-07 08:55:00,36.3,18.5,30.12,ESE,103,0.0,0.0,48,0.00,CLR,CLR,0.00,WeatherDisplay:10.37,2013-04-07 07:55:00,
2013-04-07 09:10:00,37.2,18.3,30.12,ESE,113,0.0,3.0,46,0.00,CLR,CLR,0.00,WeatherDisplay:10.37,2013-04-07 08:10:00,
2013-04-07 09:20:00,38.1,18.6,30.12,SE,132,0.0,4.0,45,0.00,CLR,CLR,0.00,WeatherDisplay:10.37,2013-04-07 08:20:00,
2013-04-07 09:30:00,38.8,18.2,30.12,SE,136,0.0,0.0,43,0.00,CLR,CLR,0.00,WeatherDisplay:10.37,2013-04-07 08:30:00,
2013-04-07 09:40:00,39.4,17.6,30.12,ESE,119,1.0,4.0,41,0.00,CLR,CLR,0.00,WeatherDisplay:10.37,2013-04-07 08:40:00,
2013-04-07 09:50:00,39.9,17.5,30.12,SE,133,0.0,0.0,40,0.00,CLR,CLR,0.00,WeatherDisplay:10.37,2013-04-07 08:50:00,
2013-04-07 10:00:00,40.1,17.1,30.12,SE,139,0.0,3.0,39,0.00,CLR,CLR,0.00,WeatherDisplay:10.37,2013-04-07 09:00:00,
2013-04-07 10:05:00,40.2,17.1,30.12,SE,139,0.0,0.0,39,0.00,CLR,CLR,0.00,WeatherDisplay:10.37,2013-04-07 09:05:00,
2013-04-07 10:10:00,40.3,17.3,30.12,SSE,154,0.0,4.0,39,0.00,CLR,CLR,0.00,WeatherDisplay:10.37,2013-04-07 09:10:00,
2013-04-07 10:20:00,40.5,15.6,30.12,SSW,196,3.0,4.0,36,0.00,CLR,CLR,0.00,WeatherDisplay:10.37,2013-04-07 09:20:00,
2013-04-07 10:30:00,40.7,14.5,30.12,South,174,3.0,5.0,34,0.00,CLR,CLR,0.00,WeatherDisplay:10.37,2013-04-07 09:30:00,
2013-04-07 10:40:00,41.1,13.5,30.12,ESE,103,1.0,4.0,32,0.00,CLR,CLR,0.00,WeatherDisplay:10.37,2013-04-07 09:40:00,
2013-04-07 10:50:00,41.8,14.0,30.12,ESE,123,1.0,6.0,32,0.00,CLR,CLR,0.00,WeatherDisplay:10.37,2013-04-07 09:50:00,
2013-04-07 11:00:00,42.4,13.1,30.12,East,99,0.0,4.0,30,0.00,CLR,CLR,0.00,WeatherDisplay:10.37,2013-04-07 10:00:00,
2013-04-07 11:05:00,42.3,13.0,30.12,East,94,0.0,5.0,30,0.00,CLR,CLR,0.00,WeatherDisplay:10.37,2013-04-07 10:05:00,
2013-04-07 11:10:00,42.4,13.1,30.12,East,100,2.0,5.0,30,0.00,CLR,CLR,0.00,WeatherDisplay:10.37,2013-04-07 10:10:00,
2013-04-07 11:20:00,42.8,12.7,30.11,East,98,0.0,4.0,29,0.00,CLR,CLR,0.00,WeatherDisplay:10.37,2013-04-07 10:20:00,
2013-04-07 11:30:00,42.8,12.7,30.09,ESE,102,3.0,6.0,29,0.00,CLR,CLR,0.00,WeatherDisplay:10.37,2013-04-07 10:30:00,
2013-04-07 11:40:00,43.3,13.2,30.09,ESE,105,5.0,6.0,29,0.00,CLR,CLR,0.00,WeatherDisplay:10.37,2013-04-07 10:40:00,
2013-04-07 11:50:00,43.3,12.3,30.09,ENE,61,3.0,6.0,28,0.00,CLR,CLR,0.00,WeatherDisplay:10.37,2013-04-07 10:50:00,
2013-04-07 12:00:00,43.0,12.0,30.09,ENE,68,0.0,4.0,28,0.00,CLR,CLR,0.00,WeatherDisplay:10.37,2013-04-07 11:00:00,
2013-04-07 12:10:00,42.9,13.6,30.09,NNE,28,7.0,11.0,30,0.00,CLR,CLR,0.00,WeatherDisplay:10.37,2013-04-07 11:10:00,
2013-04-07 12:15:00,42.3,15.2,30.09,NE,43,6.0,11.0,33,0.00,CLR,CLR,0.00,WeatherDisplay:10.37,2013-04-07 11:15:00,
2013-04-07 12:20:00,41.9,16.2,30.09,NE,51,7.0,11.0,35,0.00,CLR,CLR,0.00,WeatherDisplay:10.37,2013-04-07 11:20:00,
2013-04-07 12:30:00,41.5,17.8,30.09,NE,51,6.0,10.0,38,0.00,CLR,CLR,0.00,WeatherDisplay:10.37,2013-04-07 11:30:00,
2013-04-07 12:40:00,41.4,17.7,30.09,ENE,61,5.0,10.0,38,0.00,CLR,CLR,0.00,WeatherDisplay:10.37,2013-04-07 11:40:00,
2013-04-07 12:45:00,41.7,18.5,30.09,East,80,6.0,8.0,39,0.00,CLR,CLR,0.00,WeatherDisplay:10.37,2013-04-07 11:45:00,
2013-04-07 12:50:00,42.1,18.9,30.09,East,83,6.0,8.0,39,0.00,CLR,CLR,0.00,WeatherDisplay:10.37,2013-04-07 11:50:00,
2013-04-07 13:00:00,42.1,18.3,30.09,East,88,6.0,9.0,38,0.00,CLR,CLR,0.00,WeatherDisplay:10.37,2013-04-07 12:00:00,
2013-04-07 13:10:00,42.4,18.6,30.09,ENE,74,6.0,8.0,38,0.00,CLR,CLR,0.00,WeatherDisplay:10.37,2013-04-07 12:10:00,
2013-04-07 13:20:00,42.8,18.9,30.09,ENE,64,5.0,8.0,38,0.00,CLR,CLR,0.00,WeatherDisplay:10.37,2013-04-07 12:20:00,
2013-04-07 13:35:00,42.6,18.8,30.09,ENE,66,6.0,9.0,38,0.00,CLR,CLR,0.00,WeatherDisplay:10.37,2013-04-07 12:35:00,
2013-04-07 13:40:00,42.6,18.8,30.09,ENE,66,7.0,10.0,38,0.00,CLR,CLR,0.00,WeatherDisplay:10.37,2013-04-07 12:40:00,
2013-04-07 13:50:00,42.4,18.6,30.09,NE,53,6.0,10.0,38,0.00,CLR,CLR,0.00,WeatherDisplay:10.37,2013-04-07 12:50:00,
2013-04-07 14:00:00,42.4,19.2,30.09,ENE,66,7.0,12.0,39,0.00,CLR,CLR,0.00,WeatherDisplay:10.37,2013-04-07 13:00:00,
2013-04-07 14:05:00,42.4,19.2,30.09,NE,43,7.0,12.0,39,0.00,CLR,CLR,0.00,WeatherDisplay:10.37,2013-04-07 13:05:00,
2013-04-07 14:10:00,42.3,19.0,30.09,NE,49,7.0,12.0,39,0.00,CLR,CLR,0.00,WeatherDisplay:10.37,2013-04-07 13:10:00,
2013-04-07 14:20:00,42.1,18.9,30.09,NE,49,8.0,13.0,39,0.00,CLR,CLR,0.00,WeatherDisplay:10.37,2013-04-07 13:20:00,
2013-04-07 14:30:00,43.1,19.8,30.09,ENE,69,6.0,9.0,39,0.00,CLR,CLR,0.00,WeatherDisplay:10.37,2013-04-07 13:30:00,
2013-04-07 14:35:00,44.1,20.7,30.08,ENE,73,5.0,9.0,39,0.00,CLR,CLR,0.00,WeatherDisplay:10.37,2013-04-07 13:35:00,
2013-04-07 14:45:00,43.5,16.9,30.06,NE,36,9.0,15.0,34,0.00,CLR,CLR,0.00,WeatherDisplay:10.37,2013-04-07 13:45:00,
2013-04-07 14:50:00,43.2,18.6,30.06,ENE,60,8.0,12.0,37,0.00,CLR,CLR,0.00,WeatherDisplay:10.37,2013-04-07 13:50:00,
2013-04-07 14:55:00,43.2,19.2,30.06,ENE,75,9.0,13.0,38,0.00,CLR,CLR,0.00,WeatherDisplay:10.37,2013-04-07 13:55:00,
2013-04-07 15:00:00,43.3,19.4,30.06,ENE,58,8.0,13.0,38,0.00,CLR,CLR,0.00,WeatherDisplay:10.37,2013-04-07 14:00:00,
2013-04-07 15:10:00,43.3,19.4,30.06,NE,54,9.0,14.0,38,0.00,CLR,CLR,0.00,WeatherDisplay:10.37,2013-04-07 14:10:00,
2013-04-07 15:15:00,43.0,19.1,30.06,NE,48,8.0,13.0,38,0.00,CLR,CLR,0.00,WeatherDisplay:10.37,2013-04-07 14:15:00,
2013-04-07 15:20:00,43.0,19.1,30.06,NE,44,8.0,13.0,38,0.00,CLR,CLR,0.00,WeatherDisplay:10.37,2013-04-07 14:20:00,
2013-04-07 15:25:00,42.5,18.6,30.06,NE,50,10.0,16.0,38,0.00,CLR,CLR,0.00,WeatherDisplay:10.37,2013-04-07 14:25:00,
2013-04-07 15:30:00,42.1,18.9,30.06,NE,50,9.0,13.0,39,0.00,CLR,CLR,0.00,WeatherDisplay:10.37,2013-04-07 14:30:00,
2013-04-07 15:40:00,42.4,19.2,30.06,NE,53,8.0,14.0,39,0.00,CLR,CLR,0.00,WeatherDisplay:10.37,2013-04-07 14:40:00,
2013-04-07 15:50:00,42.1,18.9,30.06,NE,43,10.0,15.0,39,0.00,CLR,CLR,0.00,WeatherDisplay:10.37,2013-04-07 14:50:00,
2013-04-07 15:55:00,42.1,18.9,30.06,NE,56,8.0,13.0,39,0.00,CLR,CLR,0.00,WeatherDisplay:10.37,2013-04-07 14:55:00,
2013-04-07 16:05:00,42.2,19.6,30.05,NE,46,8.0,13.0,40,0.00,CLR,CLR,0.00,WeatherDisplay:10.37,2013-04-07 15:05:00,
2013-04-07 16:10:00,42.4,19.2,30.03,NE,50,7.0,13.0,39,0.00,CLR,CLR,0.00,WeatherDisplay:10.37,2013-04-07 15:10:00,
2013-04-07 16:15:00,42.4,19.2,30.03,NE,49,9.0,13.0,39,0.00,CLR,CLR,0.00,WeatherDisplay:10.37,2013-04-07 15:15:00,
2013-04-07 16:20:00,42.4,19.8,30.03,ENE,58,6.0,10.0,40,0.00,CLR,CLR,0.00,WeatherDisplay:10.37,2013-04-07 15:20:00,
2013-04-07 16:30:00,42.3,19.0,30.03,ENE,78,9.0,13.0,39,0.00,CLR,CLR,0.00,WeatherDisplay:10.37,2013-04-07 15:30:00,
2013-04-07 16:35:00,41.8,18.6,30.03,ENE,74,9.0,14.0,39,0.00,CLR,CLR,0.00,WeatherDisplay:10.37,2013-04-07 15:35:00,
2013-04-07 16:40:00,41.5,18.4,30.03,ENE,69,10.0,15.0,39,0.00,CLR,CLR,0.00,WeatherDisplay:10.37,2013-04-07 15:40:00,
2013-04-07 16:50:00,41.2,19.2,30.03,NE,54,9.0,13.0,41,0.00,CLR,CLR,0.00,WeatherDisplay:10.37,2013-04-07 15:50:00,
2013-04-07 17:00:00,40.6,18.1,30.03,ENE,73,8.0,11.0,40,0.00,CLR,CLR,0.00,WeatherDisplay:10.37,2013-04-07 16:00:00,
2013-04-07 17:05:00,40.1,18.3,30.03,ENE,74,8.0,13.0,41,0.00,CLR,CLR,0.00,WeatherDisplay:10.37,2013-04-07 16:05:00,
2013-04-07 17:15:00,40.1,19.4,30.03,ENE,67,8.0,12.0,43,0.00,CLR,CLR,0.00,WeatherDisplay:10.37,2013-04-07 16:15:00,
2013-04-07 17:20:00,39.8,18.6,30.03,ENE,57,8.0,13.0,42,0.00,CLR,CLR,0.00,WeatherDisplay:10.37,2013-04-07 16:20:00,
2013-04-07 17:30:00,38.7,18.6,30.03,ENE,66,8.0,13.0,44,0.00,CLR,CLR,0.00,WeatherDisplay:10.37,2013-04-07 16:30:00,
2013-04-07 17:40:00,38.3,18.8,30.03,NE,49,7.0,13.0,45,0.00,CLR,CLR,0.00,WeatherDisplay:10.37,2013-04-07 16:40:00,
2013-04-07 17:50:00,38.1,19.6,30.02,ENE,60,6.0,11.0,47,0.00,CLR,CLR,0.00,WeatherDisplay:10.37,2013-04-07 16:50:00,
2013-04-07 18:00:00,37.8,19.8,30.00,ENE,73,9.0,13.0,48,0.00,CLR,CLR,0.00,WeatherDisplay:10.37,2013-04-07 17:00:00,
2013-04-07 18:10:00,37.4,20.0,30.00,NE,55,7.0,12.0,49,0.00,CLR,CLR,0.00,WeatherDisplay:10.37,2013-04-07 17:10:00,
2013-04-07 18:20:00,37.4,20.4,30.00,ENE,64,8.0,11.0,50,0.00,CLR,CLR,0.00,WeatherDisplay:10.37,2013-04-07 17:20:00,
2013-04-07 18:30:00,37.6,20.6,30.00,ENE,59,6.0,11.0,50,0.00,CLR,CLR,0.00,WeatherDisplay:10.37,2013-04-07 17:30:00,
2013-04-07 18:40:00,37.6,20.6,30.00,ENE,66,6.0,12.0,50,0.00,CLR,CLR,0.00,WeatherDisplay:10.37,2013-04-07 17:40:00,
2013-04-07 18:50:00,37.4,20.4,30.00,ENE,68,7.0,10.0,50,0.00,CLR,CLR,0.00,WeatherDisplay:10.37,2013-04-07 17:50:00,
2013-04-07 18:55:00,37.4,20.4,30.00,ENE,59,8.0,16.0,50,0.00,CLR,CLR,0.00,WeatherDisplay:10.37,2013-04-07 17:55:00,
2013-04-07 19:05:00,37.0,20.6,30.00,NE,53,8.0,13.0,51,0.00,CLR,CLR,0.00,WeatherDisplay:10.37,2013-04-07 18:05:00,
2013-04-07 19:10:00,36.9,20.4,30.00,NE,50,7.0,13.0,51,0.00,CLR,CLR,0.00,WeatherDisplay:10.37,2013-04-07 18:10:00,
2013-04-07 19:20:00,36.7,20.7,30.00,ENE,76,7.0,12.0,52,0.00,CLR,CLR,0.00,WeatherDisplay:10.37,2013-04-07 18:20:00,
2013-04-07 19:30:00,36.7,20.7,30.00,ENE,65,7.0,11.0,52,0.00,CLR,CLR,0.00,WeatherDisplay:10.37,2013-04-07 18:30:00,
2013-04-07 19:40:00,36.5,21.0,30.00,ENE,61,8.0,13.0,53,0.00,CLR,CLR,0.00,WeatherDisplay:10.37,2013-04-07 18:40:00,
2013-04-07 19:50:00,36.3,20.8,30.00,ENE,71,6.0,10.0,53,0.00,CLR,CLR,0.00,WeatherDisplay:10.37,2013-04-07 18:50:00,
2013-04-07 20:00:00,36.2,21.1,30.00,ENE,59,7.0,10.0,54,0.00,CLR,CLR,0.00,WeatherDisplay:10.37,2013-04-07 19:00:00,
2013-04-07 20:10:00,36.0,20.9,30.00,ENE,71,9.0,13.0,54,0.00,CLR,CLR,0.00,WeatherDisplay:10.37,2013-04-07 19:10:00,
2013-04-07 20:15:00,36.0,20.9,30.00,ENE,73,5.0,9.0,54,0.00,CLR,CLR,0.00,WeatherDisplay:10.37,2013-04-07 19:15:00,
2013-04-07 20:25:00,36.0,20.9,30.00,ENE,66,6.0,13.0,54,0.00,CLR,CLR,0.00,WeatherDisplay:10.37,2013-04-07 19:25:00,
2013-04-07 20:30:00,35.8,20.7,30.00,ENE,70,7.0,13.0,54,0.00,CLR,CLR,0.00,WeatherDisplay:10.37,2013-04-07 19:30:00,
2013-04-07 20:40:00,35.8,21.2,30.00,ENE,66,8.0,15.0,55,0.00,CLR,CLR,0.00,WeatherDisplay:10.37,2013-04-07 19:40:00,
2013-04-07 20:50:00,35.6,20.6,30.00,ENE,61,7.0,13.0,54,0.00,CLR,CLR,0.00,WeatherDisplay:10.37,2013-04-07 19:50:00,
2013-04-07 21:00:00,35.6,20.6,30.00,ENE,74,7.0,10.0,54,0.00,CLR,CLR,0.00,WeatherDisplay:10.37,2013-04-07 20:00:00,
2013-04-07 21:05:00,35.6,20.6,30.00,ENE,68,8.0,10.0,54,0.00,CLR,CLR,0.00,WeatherDisplay:10.37,2013-04-07 20:05:00,
2013-04-07 21:10:00,35.6,20.6,30.00,ENE,61,5.0,10.0,54,0.00,CLR,CLR,0.00,WeatherDisplay:10.37,2013-04-07 20:10:00,
2013-04-07 21:20:00,35.6,20.6,30.00,ENE,62,7.0,9.0,54,0.00,CLR,CLR,0.00,WeatherDisplay:10.37,2013-04-07 20:20:00,
2013-04-07 21:36:00,35.6,21.0,30.00,ENE,78,3.0,8.0,55,0.00,CLR,CLR,0.00,WeatherDisplay:10.37,2013-04-07 20:36:00,
2013-04-07 21:45:00,35.8,21.2,30.00,East,86,5.0,8.0,55,0.00,CLR,CLR,0.00,WeatherDisplay:10.37,2013-04-07 20:45:00,
2013-04-07 21:50:00,35.8,21.2,30.00,East,83,3.0,8.0,55,0.00,CLR,CLR,0.00,WeatherDisplay:10.37,2013-04-07 20:50:00,
2013-04-07 21:55:00,35.8,20.7,30.00,East,83,3.0,8.0,54,0.00,CLR,CLR,0.00,WeatherDisplay:10.37,2013-04-07 20:55:00,
2013-04-07 22:05:00,35.8,20.7,30.00,ENE,69,6.0,8.0,54,0.00,CLR,CLR,0.00,WeatherDisplay:10.37,2013-04-07 21:05:00,
2013-04-07 22:10:00,35.8,20.7,30.00,East,79,5.0,8.0,54,0.00,CLR,CLR,0.00,WeatherDisplay:10.37,2013-04-07 21:10:00,
2013-04-07 22:20:00,35.8,20.7,30.00,East,85,5.0,6.0,54,0.00,CLR,CLR,0.00,WeatherDisplay:10.37,2013-04-07 21:20:00,
2013-04-07 22:25:00,35.8,20.7,30.00,East,88,5.0,8.0,54,0.00,CLR,CLR,0.00,WeatherDisplay:10.37,2013-04-07 21:25:00,
2013-04-07 22:30:00,35.8,20.7,30.00,East,94,3.0,8.0,54,0.00,CLR,CLR,0.00,WeatherDisplay:10.37,2013-04-07 21:30:00,
2013-04-07 22:40:00,35.6,20.1,30.00,East,95,3.0,6.0,53,0.00,CLR,CLR,0.00,WeatherDisplay:10.37,2013-04-07 21:40:00,
2013-04-07 22:50:00,35.6,20.1,30.00,East,90,1.0,8.0,53,0.00,CLR,CLR,0.00,WeatherDisplay:10.37,2013-04-07 21:50:00,
2013-04-07 23:00:00,35.6,20.1,29.97,ENE,58,3.0,8.0,53,0.00,CLR,CLR,0.00,WeatherDisplay:10.37,2013-04-07 22:00:00,
2013-04-07 23:05:00,35.6,20.1,29.97,NE,54,5.0,8.0,53,0.00,CLR,CLR,0.00,WeatherDisplay:10.37,2013-04-07 22:05:00,
2013-04-07 23:10:00,35.4,20.0,29.97,ENE,61,6.0,12.0,53,0.00,CLR,CLR,0.00,WeatherDisplay:10.37,2013-04-07 22:10:00,
2013-04-07 23:20:00,35.4,20.0,29.97,ENE,76,3.0,6.0,53,0.00,CLR,CLR,0.00,WeatherDisplay:10.37,2013-04-07 22:20:00,
2013-04-07 23:30:00,35.6,19.7,29.97,East,98,2.0,6.0,52,0.00,CLR,CLR,0.00,WeatherDisplay:10.37,2013-04-07 22:30:00,
2013-04-07 23:40:00,35.6,19.7,29.97,East,92,6.0,9.0,52,0.00,CLR,CLR,0.00,WeatherDisplay:10.37,2013-04-07 22:40:00,
2013-04-07 23:50:00,35.6,19.7,29.97,East,91,6.0,10.0,52,0.00,CLR,CLR,0.00,WeatherDisplay:10.37,2013-04-07 22:50:00,
2013-04-07 23:55:00,35.6,19.2,29.97,East,86,6.0,7.0,51,0.00,CLR,CLR,0.00,WeatherDisplay:10.37,2013-04-07 22:55:00,